Вернуться в каталог

CZ-4B DEB

АктивенSSO
NORAD 28438·DEBRIS·🇨🇳 China

Запущен May 15, 2002 с Taiyuan Satellite Launch Center

Loading…

Ближайшие Пролёты (ближайшие 24 часа)

TLE

СвежийSource: Space-Track

Эпоха: Sep 14, 2026, 00:24 UTC

1 28438U 02024E   26257.01687132  .00002368  00000-0  62274-3 0  9996
2 28438  98.6376 279.9133 0015448 198.5128 161.5505 14.49992395267144

Отслеживайте CZ-4B DEB в реальном времени с AllMySat

Download on the App Store